User: anonymous   Login
Location: Unspecified
(0.0000°N, 0.0000°E)
Time: 20:21:11
(UTC+00:00)
Language:

STARLINK-3864 - Orbit

View from above orbital plane
View from above orbital plane
View from above satellite
View from above satellite

Ground track
Ground track

The orbit is defined by the following mean orbital elements,

1 52468U          26145.09132593 +.00000000 +00000-0 -55781-4 0 00009
2 52468  53.2147  76.1383 0001698  88.1259 271.9928 15.08843685    00
Epoch (UTC): 25 May 2026 02:11:30
Eccentricity: 0.0001698
inclination: 53.2147°
perigee height: 539 km
apogee height: 541 km
right ascension of ascending node: 76.1383°
argument of perigee: 88.1259°
revolutions per day: 15.08843685
mean anomaly at epoch: 271.9928°

The dashed part of the orbit path shows where the satellite is in the earth's shadow,  

DLR